Telluride, CO

1:55 AM MDT on June 22, 2018 (GMT -0600)
Telluride Regional

Weather History for KTEX - October, 2017

Change the Weather History Date:

Thursday, October 12, 2017

  Actual Average Record
Temperature  
Mean Temperature 54 °F -  
Max Temperature 60 °F 52 °F 68 °F (2015)
Min Temperature 46 °F 33 °F 21 °F (2001)
Degree Days  
Heating Degree Days 12    
Growing Degree Days 4 (Base 50)    
Moisture  
Dew Point 20 °F    
Average Humidity 27    
Maximum Humidity 41    
Minimum Humidity 15    
Precipitation  
Precipitation 0.00 in - - ()
Sea Level Pressure  
Sea Level Pressure 30.26 in    
Wind  
Wind Speed 11 mph (SSE)    
Max Wind Speed 21 mph    
Max Gust Speed 28 mph    
Visibility 10 miles    
Events      
Averages and records for this station are not official NWS values.
T = Trace of Precipitation, MM = Missing Value Source: NWS Daily Summary

Daily Weather History Graph

Daily Weather History Graph

Search for Another Location

Airport or City:

Astronomy

Oct. 12, 2017 Rise Set
Actual Time 7:17 AM MDT 6:37 PM MDT
Civil Twilight 6:51 AM MDT 7:04 PM MDT
Nautical Twilight 6:20 AM MDT 7:34 PM MDT
Astronomical Twilight 5:50 AM MDT 8:05 PM MDT
Moon No Moon Rise 2:27 PM MDT (10/12)
Length of Visible Light 12h 12m
Length of Day
11h 20m
Waning Gibbous, 48% of the Moon is Illuminated
Oct 12
Waning Gibbous
Oct 19
New
Oct 27
First Quarter
Nov 3
Full
Nov 10
Last Quarter

Hourly Weather History & Observations

Time (MDT) Temp. Windchill Dew Point Humidity Pressure Visibility Wind Dir Wind Speed Gust Speed Precip Events Conditions
12:15 AM 54.7 °F - 23.0 °F 29% 30.26 in 10.0 mi SSE 13.8 mph 20.7 mph N/A   Clear
12:35 AM 54.3 °F - 22.8 °F 29% 30.26 in 10.0 mi SSE 16.1 mph 25.3 mph N/A   Clear
12:55 AM 54.1 °F - 23.0 °F 30% 30.26 in 10.0 mi SSE 17.3 mph 26.5 mph N/A   Clear
1:15 AM 54.1 °F - 22.8 °F 30% 30.25 in 10.0 mi SSE 15.0 mph 25.3 mph N/A   Clear
1:35 AM 54.0 °F - 22.8 °F 30% 30.25 in 10.0 mi SSE 18.4 mph 26.5 mph N/A   Clear
1:55 AM 53.6 °F - 23.4 °F 31% 30.25 in 10.0 mi South 12.7 mph 24.2 mph N/A   Clear
2:15 AM 53.8 °F - 23.5 °F 31% 30.25 in 10.0 mi South 13.8 mph 23.0 mph N/A   Clear
2:35 AM 53.6 °F - 23.9 °F 32% 30.25 in 10.0 mi SSE 17.3 mph 23.0 mph N/A   Clear
2:55 AM 53.6 °F - 23.9 °F 32% 30.26 in 10.0 mi South 9.2 mph 27.6 mph N/A   Clear
3:15 AM 53.1 °F - 24.1 °F 32% 30.26 in 10.0 mi SSE 13.8 mph 25.3 mph N/A   Clear
3:35 AM 52.7 °F - 24.6 °F 34% 30.25 in 10.0 mi SE 20.7 mph 25.3 mph N/A   Clear
3:55 AM 52.7 °F - 24.6 °F 34% 30.26 in 10.0 mi SE 10.4 mph 21.9 mph N/A   Clear
4:15 AM 52.2 °F - 23.2 °F 32% 30.26 in 10.0 mi SE 8.1 mph - N/A   Clear
4:35 AM 52.9 °F - 21.7 °F 30% 30.26 in 10.0 mi Calm Calm - N/A   Clear
4:55 AM 52.2 °F - 22.6 °F 32% 30.26 in 10.0 mi ESE 15.0 mph 19.6 mph N/A   Clear
5:15 AM 52.0 °F - 23.5 °F 33% 30.26 in 10.0 mi ESE 16.1 mph - N/A   Clear
5:35 AM 52.3 °F - 23.7 °F 33% 30.26 in 10.0 mi ESE 16.1 mph 20.7 mph N/A   Clear
5:55 AM 52.7 °F - 23.4 °F 32% 30.26 in 10.0 mi ESE 17.3 mph 24.2 mph N/A   Scattered Clouds
6:15 AM 52.7 °F - 23.7 °F 32% 30.26 in 10.0 mi East 10.4 mph 18.4 mph N/A   Mostly Cloudy
6:35 AM 52.7 °F - 24.1 °F 33% 30.26 in 10.0 mi ESE 11.5 mph 25.3 mph N/A   Overcast
6:55 AM 52.7 °F - 25.7 °F 35% 30.26 in 10.0 mi ESE 10.4 mph 18.4 mph N/A   Overcast
7:15 AM 52.5 °F - 27.5 °F 38% 30.27 in 10.0 mi ESE 6.9 mph - N/A   Overcast
7:35 AM 52.5 °F - 28.2 °F 39% 30.26 in 10.0 mi Calm Calm - N/A   Overcast
7:55 AM 53.1 °F - 28.4 °F 39% 30.26 in 10.0 mi SE 11.5 mph 27.6 mph N/A   Overcast
8:15 AM 52.2 °F - 29.3 °F 41% 30.27 in 10.0 mi South 8.1 mph - N/A   Scattered Clouds
8:35 AM 52.3 °F - 28.8 °F 40% 30.28 in 10.0 mi SSE 6.9 mph - N/A   Scattered Clouds
8:55 AM 51.8 °F - 28.4 °F 41% 30.28 in 10.0 mi SSE 6.9 mph 21.9 mph N/A   Scattered Clouds
9:15 AM 52.5 °F - 29.5 °F 41% 30.28 in 10.0 mi SE 10.4 mph 18.4 mph N/A   Scattered Clouds
9:35 AM 52.7 °F - 28.2 °F 39% 30.27 in 10.0 mi ESE 10.4 mph 21.9 mph N/A   Clear
9:55 AM 54.1 °F - 26.6 °F 35% 30.27 in 10.0 mi SSW 13.8 mph 21.9 mph N/A   Clear
10:15 AM 55.0 °F - 25.5 °F 32% 30.27 in 10.0 mi South 9.2 mph 17.3 mph N/A   Clear
10:35 AM 56.3 °F - 25.0 °F 30% 30.28 in 10.0 mi Calm Calm - N/A   Clear
10:55 AM 56.8 °F - 24.3 °F 28% 30.28 in 10.0 mi WSW 5.8 mph - N/A   Clear
11:15 AM 57.2 °F - 21.2 °F 25% 30.27 in 10.0 mi ESE 5.8 mph - N/A   Scattered Clouds
11:35 AM 57.9 °F - 18.9 °F 22% 30.26 in 10.0 mi WSW 13.8 mph 20.7 mph N/A   Scattered Clouds
11:55 AM 58.3 °F - 16.9 °F 20% 30.27 in 10.0 mi WSW 10.4 mph 17.3 mph N/A   Clear
12:15 PM 58.8 °F - 21.2 °F 23% 30.27 in 10.0 mi SSE 6.9 mph 17.3 mph N/A   Scattered Clouds
12:35 PM 58.3 °F - 20.5 °F 23% 30.27 in 10.0 mi SSW 6.9 mph - N/A   Scattered Clouds
12:55 PM 58.5 °F - 19.4 °F 22% 30.26 in 10.0 mi SSW 9.2 mph - N/A   Scattered Clouds
1:15 PM 58.8 °F - 19.8 °F 22% 30.25 in 10.0 mi SSE 8.1 mph 27.6 mph N/A   Clear
1:35 PM 58.8 °F - 18.5 °F 21% 30.24 in 10.0 mi SW 10.4 mph 16.1 mph N/A   Clear
1:55 PM 59.9 °F - 13.8 °F 16% 30.24 in 10.0 mi WSW 11.5 mph 17.3 mph N/A   Clear
2:15 PM 59.4 °F - 14.4 °F 17% 30.23 in 10.0 mi SW 8.1 mph - N/A   Clear
2:35 PM 59.7 °F - 14.9 °F 17% 30.23 in 10.0 mi West 17.3 mph 21.9 mph N/A   Clear
2:55 PM 60.1 °F - 12.4 °F 15% 30.23 in 10.0 mi WSW 11.5 mph 26.5 mph N/A   Clear
3:15 PM 60.1 °F - 12.6 °F 15% 30.23 in 10.0 mi SW 10.4 mph 24.2 mph N/A   Clear
3:35 PM 59.9 °F - 14.4 °F 17% 30.23 in 10.0 mi West 16.1 mph 27.6 mph N/A   Clear
3:55 PM 60.3 °F - 13.1 °F 16% 30.24 in 10.0 mi West 13.8 mph 20.7 mph N/A   Clear
4:15 PM 60.1 °F - 14.9 °F 17% 30.24 in 10.0 mi WSW 15.0 mph 23.0 mph N/A   Clear
4:35 PM 59.5 °F - 13.1 °F 16% 30.24 in 10.0 mi West 12.7 mph 20.7 mph N/A   Clear
4:55 PM 59.5 °F - 13.1 °F 16% 30.24 in 10.0 mi WSW 11.5 mph 23.0 mph N/A   Clear
5:15 PM 59.2 °F - 13.1 °F 16% 30.24 in 10.0 mi West 15.0 mph 20.7 mph N/A   Clear
5:35 PM 58.3 °F - 14.9 °F 18% 30.25 in 10.0 mi WSW 9.2 mph 20.7 mph N/A   Clear
5:55 PM 57.6 °F - 15.6 °F 19% 30.25 in 10.0 mi West 10.4 mph - N/A   Clear
6:15 PM 56.7 °F - 15.6 °F 20% 30.25 in 10.0 mi SSW 4.6 mph - N/A   Clear
6:35 PM 55.6 °F - 16.5 °F 22% 30.26 in 10.0 mi SW 6.9 mph - N/A   Clear
6:55 PM 54.7 °F - 15.3 °F 21% 30.26 in 10.0 mi SSE 5.8 mph - N/A   Clear
7:15 PM 54.5 °F - 15.4 °F 21% 30.27 in 10.0 mi Calm Calm - N/A   Clear
7:35 PM 54.1 °F - 15.4 °F 22% 30.27 in 10.0 mi SE 4.6 mph - N/A   Clear
7:55 PM 53.6 °F - 15.8 °F 22% 30.27 in 10.0 mi South 5.8 mph - N/A   Clear
8:15 PM 52.7 °F - 16.5 °F 24% 30.28 in 10.0 mi SE 9.2 mph - N/A   Clear
8:35 PM 52.3 °F - 16.7 °F 24% 30.28 in 10.0 mi SE 6.9 mph - N/A   Clear
8:55 PM 51.8 °F - 17.1 °F 25% 30.28 in 10.0 mi ESE 6.9 mph - N/A   Clear
9:15 PM 51.4 °F - 17.1 °F 26% 30.28 in 10.0 mi ESE 6.9 mph - N/A   Clear
9:35 PM 49.8 °F - 17.4 °F 28% 30.29 in 10.0 mi Calm Calm - N/A   Clear
9:55 PM 49.6 °F - 16.7 °F 27% 30.29 in 10.0 mi ESE 4.6 mph - N/A   Clear
10:15 PM 49.6 °F - 16.7 °F 27% 30.29 in 10.0 mi ESE 6.9 mph - N/A   Clear
10:35 PM 47.3 °F - 17.4 °F 30% 30.29 in 10.0 mi East 4.6 mph - N/A   Clear
10:55 PM 48.9 °F - 16.2 °F 27% 30.30 in 10.0 mi Calm Calm - N/A   Clear
11:15 PM 48.2 °F - 16.5 °F 28% 30.29 in 10.0 mi ESE 5.8 mph - N/A   Clear
11:35 PM 47.8 °F - 15.8 °F 28% 30.29 in 10.0 mi Calm Calm - N/A   Clear
11:55 PM 46.0 °F 44.8 °F 17.4 °F 32% 30.29 in 10.0 mi East 3.5 mph - N/A   Clear